EW2748 Weather Reports


Display with metric or nautical units.
time (UTC)temp
F
wind
direction
speed
MPH
gust
MPH
rain 1hr
in
rain 24hr
in
rain mn
in
humidity
%
barometer
mb
20260902024009 79 144 0.0 0.0 0.00 0.00 0.00 80 1019.2
20260902023507 79 144 0.0 0.0 0.00 0.00 0.00 80 1019.0
20260902023018 80 144 0.0 0.0 0.00 0.00 0.00 80 1019.1
20260902022513 80 144 0.0 0.0 0.00 0.00 0.00 80 1019.1
20260902022009 80 144 0.0 0.0 0.00 0.00 0.00 79 1019.1
20260902021523 80 144 0.0 0.0 0.00 0.00 0.00 79 1019.0
20260902021009 80 144 0.0 0.0 0.00 0.00 0.00 79 1018.8
20260902020514 80 144 0.0 0.0 0.00 0.00 0.00 78 1018.8
20260902020030 80 145 0.0 0.0 0.00 0.00 0.00 76 1018.8
20260902015511 81 144 0.0 0.0 0.00 0.00 0.00 76 1018.8
20260902015010 81 144 0.0 0.0 0.00 0.00 0.00 75 1018.5
20260902014524 81 144 0.0 0.0 0.00 0.00 0.00 75 1018.6
20260902014008 81 144 0.0 0.0 0.00 0.00 0.00 74 1018.6
20260902013508 82 144 0.0 0.0 0.00 0.00 0.00 73 1018.6
20260902013030 82 144 0.0 0.0 0.00 0.00 0.00 73 1018.5
20260902012506 82 144 0.0 0.0 0.00 0.00 0.00 72 1018.3
20260902012009 82 144 0.0 0.0 0.00 0.00 0.00 71 1018.4
20260902011523 82 144 0.0 0.0 0.00 0.00 0.00 71 1018.5
20260902011013 83 144 0.0 0.0 0.00 0.00 0.00 71 1018.4
20260902010508 83 144 0.0 0.0 0.00 0.00 0.00 70 1018.2
20260902010032 83 144 0.0 0.0 0.00 0.00 0.00 71 1018.2
20260902005513 84 144 0.0 0.0 0.00 0.00 0.00 69 1018.3
20260902005007 84 144 0.0 0.0 0.00 0.00 0.00 69 1018.4
20260902004522 84 144 0.0 0.0 0.00 0.00 0.00 68 1018.2
20260902004013 84 144 0.0 0.0 0.00 0.00 0.00 68 1018.1
20260902003509 85 144 0.0 0.0 0.00 0.00 0.00 67 1018.3
20260902003015 85 144 0.0 0.0 0.00 0.00 0.00 66 1018.4
20260902002512 86 144 0.0 0.0 0.00 0.00 0.00 65 1018.3
20260902002011 86 144 0.0 0.0 0.00 0.00 0.00 64 1018.1
20260902001526 86 144 0.0 0.0 0.00 0.00 0.00 62 1018.3
20260902001007 87 144 0.0 0.0 0.00 0.00 0.00 61 1018.4
20260902000512 87 144 0.0 0.0 0.00 0.00 0.00 60 1018.4
20260902000030 87 144 0.0 0.0 0.00 0.00 0.00 61 1018.2
20260901235507 87 144 0.0 0.0 0.00 0.00 0.00 60 1018.2
20260901235014 88 144 0.0 0.0 0.00 0.00 0.00 59 1018.4
20260901234525 88 144 0.0 0.0 0.00 0.00 0.00 59 1018.6
20260901234011 88 144 0.0 0.0 0.00 0.00 0.00 58 1018.4
20260901233512 89 144 0.0 0.0 0.00 0.00 0.00 58 1018.3
20260901233017 89 144 0.0 0.0 0.00 0.00 0.00 57 1018.3
20260901232504 89 144 0.0 0.0 0.00 0.00 0.00 56 1018.6
20260901232008 90 144 0.0 0.0 0.00 0.00 0.00 55 1018.4
20260901231520 90 144 0.0 1.0 0.00 0.00 0.00 54 1018.2
20260901231010 90 144 0.0 1.0 0.00 0.00 0.00 55 1018.2
20260901230507 90 149 0.0 0.0 0.00 0.00 0.00 53 1018.4
20260901230015 91 206 0.0 0.0 0.00 0.00 0.00 53 1018.5
20260901225508 91 211 0.0 0.0 0.00 0.00 0.00 55 1018.4
20260901225007 91 212 0.0 0.0 0.00 0.00 0.00 54 1018.3
20260901224522 91 186 0.0 0.0 0.00 0.00 0.00 53 1018.3
20260901224010 91 186 0.0 0.0 0.00 0.00 0.00 52 1018.4
20260901223508 91 124 0.0 2.0 0.00 0.00 0.00 52 1018.4
20260901223013 92 199 0.0 2.0 0.00 0.00 0.00 52 1018.2
20260901222511 92 146 0.0 1.0 0.00 0.00 0.00 52 1018.1
20260901222008 92 149 0.0 1.0 0.00 0.00 0.00 52 1018.3
20260901221518 92 223 0.0 3.0 0.00 0.00 0.00 53 1018.3
20260901221006 92 141 0.0 3.0 0.00 0.00 0.00 51 1018.0
20260901220507 92 103 0.0 2.0 0.00 0.00 0.00 51 1018.0
20260901220033 92 146 0.0 1.0 0.00 0.00 0.00 49 1018.2
20260901215508 92 173 0.0 1.0 0.00 0.00 0.00 49 1018.3
20260901215007 92 200 0.0 3.0 0.00 0.00 0.00 49 1018.2
20260901214518 93 225 0.0 3.0 0.00 0.00 0.00 50 1018.0
20260901214012 93 109 0.0 3.0 0.00 0.00 0.00 49 1018.1
20260901213506 93 197 0.0 2.0 0.00 0.00 0.00 49 1018.2
20260901213022 93 193 0.0 0.0 0.00 0.00 0.00 50 1018.3
20260901212508 93 219 0.0 3.0 0.00 0.00 0.00 49 1018.0
20260901212009 94 219 0.0 3.0 0.00 0.00 0.00 49 1018.1
20260901211523 94 197 0.0 2.0 0.00 0.00 0.00 48 1018.3
20260901211009 94 203 0.0 2.0 0.00 0.00 0.00 47 1018.4
20260901210510 94 88 0.0 1.0 0.00 0.00 0.00 47 1018.4
20260901210026 95 88 0.0 3.0 0.00 0.00 0.00 44 1018.3
20260901205512 95 89 1.0 4.0 0.00 0.00 0.00 43 1018.5
20260901205010 95 179 1.0 4.0 0.00 0.00 0.00 44 1018.6
20260901204516 95 246 0.0 1.0 0.00 0.00 0.00 45 1018.9
20260901204009 95 222 0.0 1.0 0.00 0.00 0.00 46 1018.6
20260901203510 95 226 0.0 4.0 0.00 0.00 0.00 48 1018.6
20260901203041 95 111 0.0 4.0 0.00 0.00 0.00 49 1018.8
20260901202506 95 232 0.0 1.0 0.00 0.00 0.00 48 1018.9
20260901202009 95 252 0.0 1.0 0.00 0.00 0.00 49 1019.1
20260901201523 95 223 0.0 1.0 0.00 0.00 0.00 45 1018.9
20260901201012 95 202 0.0 1.0 0.00 0.00 0.00 47 1019.0
20260901200509 94 188 0.0 1.0 0.00 0.00 0.00 47 1019.1
20260901200024 94 234 0.0 4.0 0.00 0.00 0.00 48 1019.2
20260901195511 94 133 0.0 4.0 0.00 0.00 0.00 47 1019.3
20260901195008 95 138 2.0 4.0 0.00 0.00 0.00 46 1019.2
20260901194526 95 120 1.0 3.0 0.00 0.00 0.00 47 1019.2
20260901194008 95 83 0.0 3.0 0.00 0.00 0.00 47 1019.3
20260901193513 95 160 0.0 3.0 0.00 0.00 0.00 47 1019.5
20260901193017 95 95 1.0 3.0 0.00 0.00 0.00 46 1019.6
20260901192511 94 81 0.0 2.0 0.00 0.00 0.00 48 1019.5
20260901192012 94 227 0.0 1.0 0.00 0.00 0.00 47 1019.5
20260901191516 94 131 0.0 1.0 0.00 0.00 0.00 47 1019.6
20260901191009 95 186 0.0 1.0 0.00 0.00 0.00 50 1019.7
20260901190513 96 186 0.0 1.0 0.00 0.00 0.00 48 1019.8
20260901190039 95 235 0.0 1.0 0.00 0.00 0.00 48 1019.9
20260901185508 94 224 0.0 1.0 0.00 0.00 0.00 50 1019.8
20260901185015 93 198 0.0 1.0 0.00 0.00 0.00 51 1019.9
20260901184524 92 264 0.0 1.0 0.00 0.00 0.00 52 1020.0
20260901184013 93 232 0.0 1.0 0.00 0.00 0.00 52 1020.1
20260901183512 93 289 0.0 1.0 0.00 0.00 0.00 51 1020.1
20260901183030 93 87 0.0 2.0 0.00 0.00 0.00 48 1020.2
20260901182512 94 87 0.0 2.0 0.00 0.00 0.00 48 1020.1
20260901182006 94 78 0.0 2.0 0.00 0.00 0.00 48 1020.3
20260901181527 95 276 0.0 2.0 0.00 0.00 0.00 48 1020.4
20260901181013 95 66 0.0 3.0 0.00 0.00 0.00 47 1020.5
20260901180515 95 54 1.0 3.0 0.00 0.00 0.00 49 1020.5
20260901180023 95 295 0.0 3.0 0.00 0.00 0.00 48 1020.4
20260901175509 96 316 1.0 2.0 0.00 0.00 0.00 46 1020.5
20260901174522 95 260 0.0 1.0 0.00 0.00 0.00 47 1020.6
20260901174016 95 274 0.0 3.0 0.00 0.00 0.00 48 1020.7
20260901173516 95 274 1.0 3.0 0.00 0.00 0.00 49 1020.7
20260901173025 94 94 0.0 3.0 0.00 0.00 0.00 52 1020.8
20260901172511 94 221 0.0 3.0 0.00 0.00 0.00 49 1020.8
20260901171527 94 120 0.0 2.0 0.00 0.00 0.00 53 1021.0
20260901171012 94 279 0.0 2.0 0.00 0.00 0.00 52 1021.1
20260901170512 93 283 0.0 2.0 0.00 0.00 0.00 53 1021.2
20260901170030 93 309 0.0 2.0 0.00 0.00 0.00 50 1021.2
20260901165511 93 233 0.0 2.0 0.00 0.00 0.00 51 1021.3
20260901165012 93 276 0.0 3.0 0.00 0.00 0.00 54 1021.3
20260901164528 92 194 0.0 3.0 0.00 0.00 0.00 52 1021.3
20260901164013 92 269 0.0 2.0 0.00 0.00 0.00 54 1021.2
20260901163514 91 220 0.0 1.0 0.00 0.00 0.00 56 1021.3
20260901163026 91 210 0.0 1.0 0.00 0.00 0.00 58 1021.3
20260901162512 91 223 0.0 2.0 0.00 0.00 0.00 58 1021.4
20260901162013 90 150 0.0 2.0 0.00 0.00 0.00 55 1021.5
20260901161516 90 109 0.0 1.0 0.00 0.00 0.00 60 1021.5
20260901161010 89 231 0.0 0.0 0.00 0.00 0.00 62 1021.5
20260901160032 88 235 0.0 1.0 0.00 0.00 0.00 63 1021.6
20260901155510 88 146 0.0 1.0 0.00 0.00 0.00 62 1021.6
20260901155014 87 125 0.0 3.0 0.00 0.00 0.00 65 1021.7
20260901154532 87 299 0.0 3.0 0.00 0.00 0.00 64 1021.7
20260901154014 87 298 1.0 3.0 0.00 0.00 0.00 64 1021.7
20260901153513 87 261 0.0 1.0 0.00 0.00 0.00 67 1021.6
20260901153033 87 263 0.0 1.0 0.00 0.00 0.00 65 1021.6
20260901152514 87 222 0.0 1.0 0.00 0.00 0.00 67 1021.7
20260901152010 86 145 0.0 2.0 0.00 0.00 0.00 66 1021.7
20260901151526 86 115 0.0 2.0 0.00 0.00 0.00 69 1021.7
20260901151012 86 149 0.0 2.0 0.00 0.00 0.00 68 1021.7
20260901150515 85 99 0.0 2.0 0.00 0.00 0.00 69 1021.7
20260901150032 85 91 0.0 0.0 0.00 0.00 0.00 69 1021.7
20260901145516 85 252 0.0 0.0 0.00 0.00 0.00 70 1021.7
20260901145014 85 252 0.0 2.0 0.00 0.00 0.00 69 1021.6
20260901144520 85 119 0.0 2.0 0.00 0.00 0.00 70 1021.6
20260901144013 85 172 0.0 2.0 0.00 0.00 0.00 71 1021.6
20260901143514 85 134 0.0 2.0 0.00 0.00 0.00 69 1021.7
20260901143037 84 154 0.0 2.0 0.00 0.00 0.00 71 1021.6
20260901142511 84 105 1.0 2.0 0.00 0.00 0.00 71 1021.7
20260901142013 84 112 0.0 2.0 0.00 0.00 0.00 73 1021.6
20260901141529 83 94 0.0 2.0 0.00 0.00 0.00 74 1021.6
20260901141017 83 106 0.0 2.0 0.00 0.00 0.00 76 1021.6
20260901140503 82 99 0.0 2.0 0.00 0.00 0.00 75 1021.5
20260901140019 82 86 0.0 2.0 0.00 0.00 0.00 76 1021.5
20260901135507 82 82 0.0 2.0 0.00 0.00 0.00 77 1021.5
20260901135014 81 89 0.0 2.0 0.00 0.00 0.00 77 1021.4
20260901134511 81 86 0.0 1.0 0.00 0.00 0.00 77 1021.4
20260901134006 81 150 0.0 1.0 0.00 0.00 0.00 78 1021.4
20260901133508 80 96 0.0 1.0 0.00 0.00 0.00 80 1021.3
20260901133032 80 83 0.0 2.0 0.00 0.00 0.00 81 1021.3
20260901132503 80 84 0.0 2.0 0.00 0.00 0.00 81 1021.4
20260901132008 79 79 0.0 2.0 0.00 0.00 0.00 82 1021.4
20260901131528 79 150 0.0 2.0 0.00 0.00 0.00 84 1021.4
20260901131004 78 135 0.0 1.0 0.00 0.00 0.00 85 1021.4
20260901130504 78 146 0.0 1.0 0.00 0.00 0.00 85 1021.4
20260901130023 78 100 0.0 0.0 0.00 0.00 0.00 86 1021.4
20260901125511 77 143 0.0 0.0 0.00 0.00 0.00 88 1021.3
20260901125004 77 102 0.0 0.0 0.00 0.00 0.00 89 1021.4
20260901124516 76 117 0.0 0.0 0.00 0.00 0.00 91 1021.3
20260901124009 75 118 0.0 0.0 0.00 0.00 0.00 93 1021.2
20260901123503 74 117 0.0 0.0 0.00 0.00 0.00 95 1021.1
20260901123020 74 183 0.0 0.0 0.00 0.00 0.00 96 1021.3
20260901122510 73 183 0.0 0.0 0.00 0.00 0.00 96 1021.1
20260901122013 73 183 0.0 0.0 0.00 0.00 0.00 96 1021.0
20260901121511 72 183 0.0 0.0 0.00 0.00 0.00 96 1021.1
20260901121008 72 183 0.0 0.0 0.00 0.00 0.00 96 1021.0
20260901120511 72 183 0.0 0.0 0.00 0.00 0.00 96 1020.9
20260901120034 72 183 0.0 0.0 0.00 0.00 0.00 96 1020.9
20260901115504 72 183 0.0 0.0 0.00 0.00 0.00 96 1020.9
20260901115008 72 183 0.0 0.0 0.00 0.00 0.00 96 1020.7
20260901114530 72 182 0.0 0.0 0.00 0.00 0.00 96 1020.8
20260901114007 72 183 0.0 0.0 0.00 0.00 0.00 96 1020.6
20260901113509 72 183 0.0 0.0 0.00 0.00 0.00 96 1020.6
20260901113024 72 183 0.0 0.0 0.00 0.00 0.00 96 1020.7
20260901112515 72 182 0.0 0.0 0.00 0.00 0.00 96 1020.6
20260901112003 72 183 0.0 0.0 0.00 0.00 0.00 96 1020.6
20260901111520 72 182 0.0 0.0 0.00 0.00 0.00 96 1020.4
20260901111013 72 183 0.0 0.0 0.00 0.00 0.00 96 1020.4
20260901110503 72 182 0.0 0.0 0.00 0.00 0.00 96 1020.5
20260901110017 72 182 0.0 0.0 0.00 0.00 0.00 96 1020.5
20260901105513 72 182 0.0 0.0 0.00 0.00 0.00 96 1020.4
20260901105012 72 183 0.0 0.0 0.00 0.00 0.00 96 1020.3
20260901104528 72 182 0.0 0.0 0.00 0.00 0.00 96 1020.2
20260901104010 72 183 0.0 0.0 0.00 0.00 0.00 95 1020.4
20260901103514 72 183 0.0 0.0 0.00 0.00 0.00 95 1020.3
20260901103010 72 183 0.0 0.0 0.00 0.00 0.00 95 1020.2
20260901102507 72 183 0.0 0.0 0.00 0.00 0.00 95 1020.2
20260901102009 72 183 0.0 0.0 0.00 0.00 0.00 95 1020.2
20260901101531 72 182 0.0 0.0 0.00 0.00 0.00 95 1020.2
20260901101004 72 183 0.0 0.0 0.00 0.00 0.00 95 1020.1
20260901100508 72 183 0.0 0.0 0.00 0.00 0.00 95 1020.0
20260901100027 72 183 0.0 0.0 0.00 0.00 0.00 95 1019.9
20260901095515 72 183 0.0 0.0 0.00 0.00 0.00 95 1020.0
20260901095005 73 183 0.0 0.0 0.00 0.00 0.00 95 1020.0
20260901094523 73 183 0.0 0.0 0.00 0.00 0.00 95 1019.9
20260901094016 73 183 0.0 0.0 0.00 0.00 0.00 95 1019.9
20260901093504 73 183 0.0 0.0 0.00 0.00 0.00 95 1019.9
20260901093016 73 183 0.0 0.0 0.00 0.00 0.00 95 1019.9
20260901092510 73 183 0.0 0.0 0.00 0.00 0.00 95 1019.9
20260901092014 73 183 0.0 0.0 0.00 0.00 0.00 95 1019.7
20260901091518 73 183 0.0 0.0 0.00 0.00 0.00 94 1019.8
20260901091012 73 183 0.0 0.0 0.00 0.00 0.00 95 1019.7
20260901090513 73 183 0.0 0.0 0.00 0.00 0.00 95 1019.8
20260901090018 73 183 0.0 0.0 0.00 0.00 0.00 95 1019.6
20260901085011 73 183 0.0 0.0 0.00 0.00 0.00 95 1019.5
20260901084531 73 183 0.0 0.0 0.00 0.00 0.00 95 1019.4
20260901084006 73 182 0.0 0.0 0.00 0.00 0.00 95 1019.4
20260901083508 73 183 0.0 0.0 0.00 0.00 0.00 94 1019.6
20260901083027 73 183 0.0 0.0 0.00 0.00 0.00 94 1019.6
20260901082514 73 182 0.0 0.0 0.00 0.00 0.00 94 1019.5
20260901082006 73 183 0.0 0.0 0.00 0.00 0.00 94 1019.5
20260901081526 73 183 0.0 0.0 0.00 0.00 0.00 94 1019.5
20260901081013 73 183 0.0 0.0 0.00 0.00 0.00 94 1019.5
20260901080507 73 183 0.0 0.0 0.00 0.00 0.00 94 1019.6
20260901080030 73 182 0.0 0.0 0.00 0.00 0.00 94 1019.7
20260901075515 73 183 0.0 0.0 0.00 0.00 0.00 94 1019.6
20260901075014 73 183 0.0 0.0 0.00 0.00 0.00 93 1019.5
20260901074516 73 183 0.0 0.0 0.00 0.00 0.00 93 1019.5
20260901074012 74 183 0.0 0.0 0.00 0.00 0.00 93 1019.4
20260901073515 74 183 0.0 0.0 0.00 0.00 0.00 93 1019.4
20260901073012 74 183 0.0 0.0 0.00 0.00 0.00 93 1019.5
20260901072507 74 183 0.0 0.0 0.00 0.00 0.00 93 1019.4
20260901072017 74 183 0.0 0.0 0.00 0.00 0.00 93 1019.5
20260901071536 74 182 0.0 0.0 0.00 0.00 0.00 93 1019.4
20260901070512 74 183 0.0 0.0 0.00 0.00 0.00 93 1019.5
20260901070032 74 183 0.0 0.0 0.00 0.00 0.00 92 1019.6
20260901065507 74 182 0.0 0.0 0.00 0.00 0.00 91 1019.5
20260901065010 75 183 0.0 0.0 0.00 0.00 0.00 91 1019.4
20260901064527 75 183 0.0 0.0 0.00 0.00 0.00 91 1019.5
20260901064017 75 183 0.0 0.0 0.00 0.00 0.00 91 1019.5
20260901063506 75 183 0.0 0.0 0.00 0.00 0.00 91 1019.6
20260901063027 75 182 0.0 0.0 0.00 0.00 0.00 91 1019.5
20260901062514 75 183 0.0 0.0 0.00 0.00 0.00 90 1019.5
20260901062020 75 183 0.0 0.0 0.00 0.00 0.00 90 1019.6
20260901061520 75 182 0.0 0.0 0.00 0.00 0.00 91 1019.5
20260901061019 75 183 0.0 0.0 0.00 0.00 0.00 91 1019.8
20260901060514 75 182 0.0 0.0 0.00 0.00 0.00 91 1019.7
20260901060022 75 182 0.0 0.0 0.00 0.00 0.00 91 1019.6
20260901055511 75 183 0.0 0.0 0.00 0.00 0.00 91 1019.8
20260901055016 75 183 0.0 0.0 0.00 0.00 0.00 91 1019.5
20260901054534 75 183 0.0 0.0 0.00 0.00 0.00 90 1019.7
20260901054010 75 183 0.0 0.0 0.00 0.00 0.00 90 1019.7
20260901053513 75 183 0.0 0.0 0.00 0.00 0.00 90 1019.6
20260901053030 75 183 0.0 0.0 0.00 0.00 0.00 89 1019.8
20260901052508 75 183 0.0 0.0 0.00 0.00 0.00 89 1019.8
20260901052016 75 183 0.0 0.0 0.00 0.00 0.00 89 1019.8
20260901051529 75 183 0.0 0.0 0.00 0.00 0.00 88 1019.8
20260901051017 76 183 0.0 0.0 0.00 0.00 0.00 88 1019.7
20260901050506 76 183 0.0 0.0 0.00 0.00 0.00 88 1019.6
20260901050030 76 182 0.0 0.0 0.00 0.00 0.00 89 1019.8
20260901045516 76 183 0.0 0.0 0.00 0.00 0.00 88 1019.8
20260901045010 76 183 0.0 0.0 0.00 0.00 0.00 88 1019.6
20260901044521 76 183 0.0 0.0 0.00 0.00 0.00 88 1019.7
20260901044016 76 183 0.0 0.0 0.00 0.00 0.00 88 1019.7
20260901043504 76 182 0.0 0.0 0.00 0.00 0.00 87 1019.8
20260901043027 76 183 0.0 0.0 0.00 0.00 0.00 87 1019.8
20260901042513 76 183 0.0 0.0 0.00 0.00 0.00 86 1019.9
20260901042003 76 183 0.0 0.0 0.00 0.00 0.00 86 1019.8
20260901041519 76 183 0.0 0.0 0.00 0.00 0.00 86 1019.8
20260901041009 76 183 0.0 0.0 0.00 0.00 0.00 86 1019.8
20260901040515 76 183 0.0 0.0 0.00 0.00 0.00 86 1019.7
20260901040012 77 182 0.0 0.0 0.00 0.00 0.00 86 1019.8
20260901035508 77 183 0.0 0.0 0.00 0.00 0.00 85 1019.8
20260901035015 77 183 0.0 0.0 0.00 0.00 0.00 86 1019.8
20260901034540 77 183 0.0 0.0 0.00 0.00 0.00 85 1019.8
20260901034009 77 183 0.0 0.0 0.00 0.00 0.00 85 1019.7
20260901033510 77 182 0.0 0.0 0.00 0.00 0.00 85 1019.8
20260901033041 77 183 0.0 0.0 0.00 0.00 0.00 85 1019.8
20260901032503 77 182 0.0 0.0 0.00 0.00 0.00 84 1019.8
20260901032008 78 183 0.0 0.0 0.00 0.00 0.00 85 1019.8
20260901031546 78 182 0.0 0.0 0.00 0.00 0.00 83 1019.8
20260901031019 78 182 0.0 0.0 0.00 0.00 0.00 83 1019.9
20260901030505 78 182 0.0 0.0 0.00 0.00 0.00 84 1019.8
20260901030023 78 183 0.0 0.0 0.00 0.00 0.00 83 1020.0
20260901025517 78 182 0.0 0.0 0.00 0.00 0.00 83 1019.9
20260901025004 78 183 0.0 0.0 0.00 0.00 0.00 83 1019.9
20260901024521 78 182 0.0 0.0 0.00 0.00 0.00 82 1019.9